Weather History for Terrell, TX

Change the Weather History Date:

Monday, August 26, 2013

  Actual Average (KDFW) Record (KDFW)
Temperature  
Mean Temperature 85 °F 84 °F  
Max Temperature 97 °F 95 °F 106 °F (1999)
Min Temperature 73 °F 74 °F 60 °F (1926)
Degree Days  
Heating Degree Days 0 0  
Month to date heating degree days 0  
Since 1 June heating degree days 0  
Since 1 July heating degree days 0  
Cooling Degree Days 20 19  
Month to date cooling degree days 539  
Year to date cooling degree days 2083  
Since 1 June cooling degree days 1661  
Growing Degree Days 35 (Base 50)    
Moisture  
Dew Point 66 °F    
Average Humidity 56    
Maximum Humidity 87    
Minimum Humidity 27    
Precipitation  
Precipitation 0.00 in 0.07 in 3.31 in (1947)
Month to date precipitation 1.50  
Year to date precipitation 23.70  
Sea Level Pressure  
Sea Level Pressure 30.10 in    
Wind  
Wind Speed 7 mph (ESE)    
Max Wind Speed 15 mph    
Max Gust Speed 22 mph    
Visibility 10 miles    
Events      
T = Trace of Precipitation, MM = Missing Value Source: NWS Daily Summary

Daily Weather History Graph

Daily Weather History Graph

Search for Another Location

Airport:

Trip Planner

Search our weather history database for the weather conditions in past years. The results will help you decide how hot, cold, wet, or windy it might be!

Date:

Astronomy

Aug. 26, 2013 Rise Set
Actual Time 6:56 AM CDT 7:56 PM CDT
Civil Twilight 6:30 AM CDT 8:22 PM CDT
Nautical Twilight 6:00 AM CDT 8:52 PM CDT
Astronomical Twilight 5:29 AM CDT 9:23 PM CDT
Moon 11:31 PM CDT (8/26) 12:36 PM CDT (8/26)
Length of Visible Light 13h 51m
Length of Day
13h 00m
Waning Gibbous, 66% of the Moon is Illuminated
Aug 26
Waning Gibbous
Aug 28
Last Quarter
Sep 5
New
Sep 12
First Quarter
Sep 19
Full

Hourly Weather History & Observations

Time (CDT) Temp. Heat Index Dew Point Humidity Pressure Visibility Wind Dir Wind Speed Gust Speed Precip Events Conditions
12:53 AM 82.0 °F 83.1 °F 63.0 °F 52% 30.12 in 10.0 mi ESE 4.6 mph - N/A   Clear
1:53 AM 81.0 °F 82.7 °F 64.9 °F 58% 30.12 in 10.0 mi SE 5.8 mph - N/A   Clear
2:53 AM 79.0 °F - 68.0 °F 69% 30.12 in 10.0 mi SE 3.5 mph - N/A   Clear
3:53 AM 78.1 °F - 70.0 °F 76% 30.12 in 10.0 mi ESE 4.6 mph - N/A   Clear
4:53 AM 75.9 °F - 70.0 °F 82% 30.12 in 10.0 mi ENE 3.5 mph - N/A   Clear
5:53 AM 73.9 °F - 70.0 °F 87% 30.13 in 10.0 mi East 3.5 mph - N/A   Clear
6:53 AM 73.9 °F - 70.0 °F 87% 30.14 in 10.0 mi Calm Calm - N/A   Clear
7:53 AM 75.9 °F - 71.1 °F 85% 30.16 in 10.0 mi ENE 4.6 mph - N/A   Clear
8:53 AM 81.0 °F 85.2 °F 72.0 °F 74% 30.17 in 10.0 mi ESE 9.2 mph - N/A   Clear
9:53 AM 84.0 °F 88.4 °F 70.0 °F 63% 30.17 in 10.0 mi ESE 10.4 mph - N/A   Clear
10:53 AM 87.1 °F 90.6 °F 68.0 °F 53% 30.16 in 10.0 mi ESE 10.4 mph 18.4 mph N/A   Clear
11:53 AM 90.0 °F 92.4 °F 66.0 °F 45% 30.15 in 10.0 mi ESE 11.5 mph 20.7 mph N/A   Clear
12:53 PM 91.9 °F 94.1 °F 64.9 °F 41% 30.13 in 10.0 mi ESE 15.0 mph 19.6 mph N/A   Partly Cloudy
1:53 PM 95.0 °F 95.6 °F 62.1 °F 33% 30.10 in 10.0 mi ESE 13.8 mph 21.9 mph N/A   Clear
2:53 PM 96.1 °F 96.4 °F 61.0 °F 31% 30.07 in 10.0 mi East 12.7 mph 19.6 mph N/A   Partly Cloudy
3:53 PM 97.0 °F 96.1 °F 57.9 °F 27% 30.05 in 10.0 mi SE 11.5 mph 20.7 mph N/A   Scattered Clouds
4:53 PM 96.1 °F 94.8 °F 57.0 °F 27% 30.04 in 10.0 mi SE 8.1 mph 19.6 mph N/A   Partly Cloudy
5:53 PM 93.9 °F 93.2 °F 59.0 °F 31% 30.04 in 10.0 mi ESE 13.8 mph 17.3 mph N/A   Partly Cloudy
6:53 PM 93.0 °F 92.0 °F 57.9 °F 31% 30.04 in 10.0 mi SE 10.4 mph - N/A   Clear
7:53 PM 91.0 °F 90.5 °F 60.1 °F 35% 30.04 in 10.0 mi SE 5.8 mph - N/A   Scattered Clouds
8:53 PM 84.9 °F 87.1 °F 66.0 °F 53% 30.06 in 10.0 mi SSE 13.8 mph 20.7 mph N/A   Mostly Cloudy
9:53 PM 82.9 °F 85.8 °F 68.0 °F 60% 30.06 in 10.0 mi SSE 5.8 mph - N/A   Overcast
10:53 PM 82.0 °F 85.5 °F 69.1 °F 65% 30.07 in 10.0 mi SSE 6.9 mph - N/A   Partly Cloudy
11:53 PM 79.0 °F - 70.0 °F 74% 30.08 in 10.0 mi SSE 8.1 mph - N/A   Clear